Regional Weather Roundup
Issued by NWS Goodland, KS

Home | Current Version | Previous Version | Graphics & Text | Print | Product List | Glossary On
Versions: 1 2 3 4 5 6 7 8 9 10 11 12 13 14 15 16 17 18 19 20 21 22 23 24 25 26 27 28 29 30 31 32 33 34 35 36 37 38 39 40 41 42 43 44 45 46 47 48 49 50
731
ASUS43 KGLD 060259
RWRGLD

GOODLAND FORECAST AREA HOURLY WEATHER ROUNDUP
NATIONAL WEATHER SERVICE GOODLAND KS
900 PM MDT THU MAY 05 2016

...OFFICIAL OBSERVATIONS...

CITY           SKY/WX    TMP DP  RH WIND       PRES   REMARKS
GOODLAND KS    CLOUDY    60  49  66 SE12      30.02R
HILL CITY KS   CLEAR     60  49  66 E6        30.03R
IMPERIAL NEB   CLOUDY    64  50  60 SE10      29.99R
MCCOOK NEB     CLOUDY    65  50  58 S10       30.00R
AKRON CO       CLOUDY    62  42  47 S15       30.02R
BURLINGTON CO  CLOUDY    60  43  53 SE12      30.04R
LIMON CO       CLOUDY    54  40  59 SE8       30.07R
$$

...UNOFFICIAL OBSERVATIONS...

CITY           SKY/WX    TMP DP  RH WIND       PRES   REMARKS
COLBY KS       CLEAR     64  54  68 SE13      30.04R
LENORA KS        N/A     62  32  32 MISG        N/A
NORTON KS      CLEAR     68  45  42 SE8       30.01R
SHARON SPRINGS   N/A     61  48  62 SE10        N/A
KIT CARSON CO    N/A     63  43  48 MISG        N/A
YUMA CO          N/A     61  44  53 CALM        N/A
$$




USA.gov is the U.S. government's official web portal to all federal, state and local government web resources and services.